FENGYUN 1C DEB

Satellite information

Favourite Embed

Satellite Type and Status

DEBRISIN ORBIT

Key statistics

Satellite FENGYUN 1C DEB at a glance.

Uptime

9659

Days in orbit

Revolutions

≈ 14.2

Per day

Orbit

SSO

Sun Synchronous Orbit

Inclination

99.7

Latest

Satellite identification and parameters

Extended collection of information and parameters for FENGYUN 1C DEB.

Object identification

Identified? True

Debris? True

Object name: FENGYUN 1C DEB

International designator: 1999-025AYE

Object number (NORAD): 30892

Object ID (CCSDS): 30892

Country: PEOPLES REPUBLIC OF CHINA (PRC)

Current information (Y/N): Y

RCS size: SMALL

Orbital parameters

Period: 101.498 minutes

Inclination: 99.6532 deg

SMA: 7207.709 km

Apoapsis: 857.775 km

Periapsis: 801.373 km

RAAN: 223.9057 deg

Eccentricy: 0.0039126

Argument of periapsis: 0.6224 deg

Mean anomaly: 359.4991 deg

Mean motion: 14.18753302 rev/day

Mean motion (dot): 0.00001238 rev/day2

B* drag term: 0.00061634459 1/REarth

Two-line elements (TLE)

Creation date: Oct. 13, 2025, 10:50 a.m.

Reference frame: TEME

Reference center: EARTH

Epoch: Oct. 13, 2025, 2:15 a.m. UTC

TLE line 0: 0 FENGYUN 1C DEB

TLE line 1: 1 30892U 99025AYE 25286.09433513 .00001238 00000-0 61634-3 0 9995

TLE line 2: 2 30892 99.6532 223.9057 0039126 0.6224 359.4991 14.18753302634435

Live tracking on map

Real-time ground track for satellite FENGYUN 1C DEB.

In-orbit conjunctions

A list of the most updated potential collisions computed for object FENGYUN 1C DEB.

Target Orbit TCA Probability of collision Miss distance Type
CZ-6A DEB LEO 2025-02-02 06:45:09 0.0004328175 508.0 (m) DEBRIS

Associated space launch

Chinese polar orbiting meteorological satellite

FENGYUN 1C DEB was lifted into orbit during the mission ‘Long March 4B | Feng Yun 1C’, on board a Long March 4B space rocket.

The launch took place on May 10, 1999, 1:33 a.m. from Launch Complex 7.

For more information about the launch, click the button.

Launch to space Long March 4B | Feng Yun 1C
Long March 4B | Feng Yun 1C

Agency: N/A

Status: Launch Successful

Launch date: May 10, 1999, 1:33 a.m. UTC

Rocket: Long March 4B

Launch pad: Launch Complex 7

Location: Taiyuan Satellite Launch Center, People's Republic of China

...

Latest news about this satellite

There are no fresh news available about this satellite. Check back as we update our databases every day.


Newsletter sign-up

Weekly statistics, charts and insights to help you stay on top of the space industry.